{"data":{"norad_id":40892,"epoch":"2026-05-25T02:46:05.924640Z","epoch_age_seconds":79173,"freshness":"FRESH","line1":"1 40892U 15046A   26145.11534635 -.00000159  00000+0  00000+0 0  9999","line2":"2 40892   0.2655  84.9482 0005941 344.2325  10.0226  1.00270212 39334","mean_motion":1.00270212,"eccentricity":0.0005941,"inclination_deg":0.2655,"raan_deg":84.9482,"arg_perigee_deg":344.2325,"mean_anomaly_deg":10.0226,"bstar":0,"rev_number":3933,"period_min":1436.1194329578,"perigee_km":35761.985606716,"apogee_km":35812.086265198,"semimajor_km":42165.172935957,"source":"CELESTRAK","updated_at":"2026-05-25T13:38:13.992696Z"}}